Regional Weather Roundup
Issued by NWS

Home | Current Version | Previous Version | Graphics & Text | Print | Product List | Glossary On
Versions: 1 2 3 4 5 6 7 8 9 10 11 12 13 14 15 16 17 18 19 20 21 22 23 24 25 26 27 28 29 30 31 32 33 34 35 36 37 38 39 40 41 42 43 44 45 46 47 48 49 50
987
ASUS44 KMEG 290410
RWRTN
TENNESSEE HOURLY STATE WEATHER ROUNDUP
NATIONAL WEATHER SERVICE MEMPHIS TN
1100 PM CDT WED SEP 28 2016

TNZ002-004-019-021-049-052-054-088>092-290500-
WEST TENNESSEE

CITY           SKY/WX    TMP DP  RH WIND       PRES   REMARKS
MEMPHIS INTL   CLEAR     66  46  48 NE12      30.08R
NWS MEMPHIS      N/A     64 N/A N/A MISG        N/A
JACKSON          N/A    N/A N/A N/A MISG      30.09R
DYERSBURG      PTCLDY   N/A N/A N/A MISG        N/A
UNION CITY     CLEAR     52  46  82 NW6       30.09S
PARIS          CLEAR     54  45  71 N6        30.08S
HUNTINGDON     CLEAR     57  46  67 VRB5      30.07R
LEXINGTON      CLEAR     57  45  62 N6        30.07R
$$

TNZ008-025-027-028-033-062-065-066-290500-
NORTH MIDDLE TENNESSEE

CITY           SKY/WX    TMP DP  RH WIND       PRES   REMARKS
NASHVILLE      CLEAR     59  48  67 NW10G21   30.05R
PORTLAND       CLOUDY    54  48  82 CALM      30.04S
CLARKSVILLE    CLEAR     53  44  71 NW3       30.06S
SMYRNA         CLEAR     59  51  75 N12       30.05R
COOKEVILLE     MOCLDY    55  55 100 SW5       30.02R
GALLATIN       CLOUDY    55  50  82 NW7       30.06S
CROSSVILLE     LGT RAIN  56  47  71 N8        30.02F
$$

TNZ061-075-076-078-094-096-097-290500-
SOUTH MIDDLE TENNESSEE

CITY           SKY/WX    TMP DP  RH WIND       PRES   REMARKS
FAYETTEVILLE   CLOUDY    64  50  59 NE12      30.02R
TULLAHOMA      CLOUDY    61  48  63 N9        30.05R
WINCHESTER     PTCLDY    61  48  63 N6        30.03S
MCMINNVILLE    MOCLDY    59  54  82 N3        30.02F
COLUMBIA       PTCLDY    61  52  72 N12       30.04R
SHELBYVILLE    MOCLDY    61  55  82 CALM      30.05R
$$

TNZ017-018-042-046-047-290500-
NORTHEAST TENNESSEE

CITY           SKY/WX    TMP DP  RH WIND       PRES   REMARKS
TRI CITIES     CLEAR     61  49  64 CALM      29.96R
ELIZABETHTON   PTCLDY    57  52  82 N5        29.96S
$$

TNZ012-013-036-069-073-074-290500-
CENTRAL EAST TENNESSEE

CITY           SKY/WX    TMP DP  RH WIND       PRES   REMARKS
KNOXVILLE      CLOUDY    66  54  65 N9        29.96R
OAK RIDGE      CLOUDY    66  53  63 CALM      29.97R
DOWNTOWN KNOXV MOCLDY    66  55  68 CALM      29.96R
GATLINBURG     CLEAR     63  50  63 S3        29.96R
MORRISTOWN     CLEAR     63  54  72 N8        29.95S
JACKSBORO      MOCLDY    63  54  72 VRB3      30.00F
$$

TNZ083-085-099-290500-
SOUTHEAST TENNESSEE

CITY           SKY/WX    TMP DP  RH WIND       PRES   REMARKS
CHATTANOOGA    PTCLDY    68  53  58 N12       29.97R
$$

SKY/WX REPORTED AS FAIR MEANS FEW OR NO CLOUDS BELOW
12 THOUSAND FEET.





USA.gov is the U.S. government's official web portal to all federal, state and local government web resources and services.